Location: Newark
(7.0858°N, 171.3717°E)
Time: 17:40:36
(UTC+00:00)

Transit 2A - Pass Details

Date: 27 November 2020
Orbit: 598 x 960 km, 66.7° (Epoch: 20 January)

Event Time Altitude Azimuth Distance (km) Brightness Sun altitude
Rises 04:35:36 0° 189° (S) 3,534 9.9 21.7°
Reaches altitude 10° 04:38:08 10° 184° (S) 2,626 9.3 21.2°
Maximum altitude 04:44:08 53° 109° (ESE) 1,161 6.9 19.8°
Drops below altitude 10° 04:50:16 10° 34° (NNE) 2,680 8.4 18.5°
Sets 04:52:53 0° 29° (NNE) 3,613 9.0 17.9°
